Regional Weather Roundup
Issued by NWS

Home | Current Version | Previous Version | Text Only | Print | Product List | Glossary On
Versions: 1 2 3 4 5 6 7 8 9 10 11 12 13 14 15 16 17 18 19 20 21 22 23 24 25 26 27 28 29 30 31 32 33 34 35 36 37 38 39 40 41 42 43 44 45 46 47 48 49 50
000
ASUS43 KMKX 240321
RWRWI

WISCONSIN REGIONAL WEATHER ROUNDUP
NATIONAL WEATHER SERVICE MILWAUKEE/SULLIVAN WI
1000 PM CDT MON MAY 23 2016

NOTE: "FAIR" INDICATES FEW OR NO CLOUDS BELOW 12,000 FEET WITH NO
SIGNIFICANT WEATHER AND/OR OBSTRUCTIONS TO VISIBILITY.

WIZ001-002-006>008-014>016-023>028-240400-
NORTHWEST WISCONSIN

CITY           SKY/WX    TMP DP  RH WIND       PRES   REMARKS
SUPERIOR ARPT  RAIN      65  62  91 W5G18     29.78R
ASHLAND        CLOUDY    64  63  96 VRB5      29.78S
HAYWARD        LGT RAIN  63  61  93 CALM      29.80R
SIREN          RAIN      66  63  90 SW5       29.80R
CUMBERLAND     CLOUDY    66  55  68 SW10      29.82R
RICE LAKE      CLOUDY    68  57  68 S7        29.82R
CHETEK         CLOUDY    65  65  99 CALM      29.82R
LADYSMITH      MOCLDY    66  62  85 SE5       29.84R
EAU CLAIRE     PTCLDY    66  62  87 S3        29.80S
MENOMONIE      CLOUDY    66  61  82 CALM      29.81R
NEW RICHMOND   MOCLDY    67  57  70 W5        29.82R
OSCEOLA        CLOUDY    63  63 100 CALM      29.84R
$$

WIZ003>005-009-010-017-018-240400-
NORTH CENTRAL WISCONSIN

CITY           SKY/WX    TMP DP  RH WIND       PRES   REMARKS
MANITOWISH WTR CLOUDY    65  63  94 N5        29.84F
ARBOR VITAE    CLOUDY    72  56  57 N7        29.84R
WOODRUFF       CLOUDY    72  56  57 N7        29.84R
RHINELANDER    CLOUDY    72  45  37 S6        29.85R
EAGLE RIVER      N/A     72  41  32 S3        29.84S
LAND O LAKES   CLOUDY    74  43  33 CALM      29.85R
PHILLIPS       CLOUDY    66  61  84 CALM      29.83R
TOMAHAWK       CLOUDY    66  48  52 CALM      29.84R
MEDFORD        MOCLDY    68  48  48 S6        29.84R
MERRILL        CLOUDY    68  48  49 CALM      29.84R
$$

WIZ029-030-035-036-043>047-240400-
CENTRAL WISCONSIN

CITY           SKY/WX    TMP DP  RH WIND       PRES   REMARKS
WAUSAU         PTCLDY    72  46  39 SE7       29.82R
MOSINEE        CLEAR     68  46  45 S8        29.85R
MARSHFIELD     CLOUDY    70  46  42 S8        29.82R
STEVENS POINT  PTCLDY    69  44  39 S6        29.85S
WAUPACA        PTCLDY    67  49  51 CALM      29.86R
WAUTOMA        PTCLDY    64  50  60 CALM      29.86R
WISC RAPIDS    CLOUDY    72  43  35 S5        29.85R
CAMP DOUGLAS   CLOUDY    68  50  53 SW6       29.84R
$$

WIZ011>013-019>022-031-037>040-048>050-240400-
NORTHEAST WISCONSIN

CITY           SKY/WX    TMP DP  RH WIND       PRES   REMARKS
ANTIGO         CLOUDY    62  47  58 CALM      29.87R
SHAWANO        CLOUDY    69  49  48 S5        29.86R
OCONTO         CLOUDY    65  46  49 S6        29.86S
STURGEON BAY   NOT AVBL
GREEN BAY      CLOUDY    68  43  40 S7        29.87R
MANITOWOC      CLEAR     60  39  45 S9        29.90R
APPLETON       NOT AVBL
CLINTONVILLE   CLOUDY    64  48  55 SE6       29.86R
OSHKOSH        CLOUDY    62  48  60 S6        29.87R
$$

WIZ032>034-041-042-053>061-240400-
SOUTHWEST WISCONSIN

CITY           SKY/WX    TMP DP  RH WIND       PRES   REMARKS
LA CROSSE      MOCLDY    72  57  59 S9        29.81R
SPARTA         PTCLDY    67  56  69 CALM      29.84S
VIROQUA        MOCLDY    68  55  64 E3        29.86R
BOSCOBEL       NOT AVBL
PRAIRIE DU CHI PTCLDY    76  43  30 SE5       29.83S
PLATTEVILLE    CLOUDY    70  46  42 S8        29.88R
$$

WIZ056-057-062-063-064-067-068-240400-
SOUTH CENTRAL WISCONSIN

CITY           SKY/WX    TMP DP  RH WIND       PRES   REMARKS
REEDSBURG      CLEAR     70  46  42 S5        29.86R
BARABOO/DELLS  CLEAR     71  42  35 S3        29.87R
LONE ROCK      CLEAR     67  49  52 NE3       29.87R
MINERAL POINT  CLEAR     72  43  35 S5        29.89R
MADISON        CLEAR     73  48  41 S6        29.87R
MIDDLETON      CLEAR     72  43  35 S3        29.88R
WATERTOWN      CLOUDY    66  47  49 SE6       29.89R
MONROE         CLEAR     68  45  42 S7        29.90R
JANESVILLE     NOT AVBL
$$

WIZ051-052-058>065-066-070>072-240400-
SOUTHEAST WISCONSIN

CITY           SKY/WX    TMP DP  RH WIND       PRES   REMARKS
MILWAUKEE      PTCLDY    65  37  35 S8        29.91S
WAUKESHA       CLOUDY    64  36  34 S7        29.92R
MILWAUKEE/TIMM PTCLDY    68  30  24 S8        29.92R
RACINE         CLEAR     64  37  36 S9        29.93S
BURLINGTON     CLOUDY    64  39  40 CALM      29.91R
KENOSHA        CLEAR     63  40  42 S5        29.92R
FOND DU LAC    CLOUDY    67  47  48 S7        29.88R
SHEBOYGAN      CLEAR     60  38  43 S5        29.90R
WEST BEND      CLOUDY    63  36  36 CALM      29.91R
JUNEAU         CLOUDY    67  47  50 SE9       29.90R
$$

LSZ147-162-240400-
LAKE SUPERIOR

STATION/POSITION TIME  TEMP    WIND        PRES    WAVE
                       AIR SEA DIR/SP/G            HT/PER
                 (UTC) (F)     (DEG/KT/KT) (MB)    (FT/S)
W MID LAKE BUOY  0250   50 38  180/ 12/ 12 1009.5R   1/ 4
DEVILS ISLAND    0300   64     200/  8/ 10 1008.2S
PORT WING        0200          130/  2/  9 1007.8R
SAXON HARBOR     0200   64      CALM  /  3 1009.1R
$$

LMZ867-665-643>646-240400-
LAKE MICHIGAN

STATION/POSITION TIME  TEMP    WIND        PRES    WAVE
                       AIR SEA DIR/SP/G            HT/PER
                 (UTC) (F)     (DEG/KT/KT) (MB)    (FT/S)
CHAMBERS ISLAND  0200   65     150/  8/ 14 1010.8S
N MID LAKE BUOY  0250   49 44  190/  8/ 10 1012.2R   2/ 4
NORTHPORT PIER   0200   63     150/  8/ 12 1011.2S
SISTER BAY       0219   66     180/ 17/ 24   N/A
ALGOMA LAKESHORE 0201          210/ 12/ 14   N/A
KEWAUNEE LAKESHO 0200   56     170/  9/ 11 1011.3
SHEBOYGAN LAKESH 0300   59     180/ 17/ 18 1012.9R
PORT WASHINGTON  0200   58     170/  3/  5 1013.2S
S MID LAKE BUOY  0250   55 50  120/ 10/ 12 1013.2R   0
KENOSHA   LAKESH 0300   61     180/ 13/ 14 1012.9S
$$

TC  - TEMPERATURE IN CELSIUS
VSB - VISIBILITY IN STATUTE MILES
WCI - WIND CHILL INDEX
HX  - HEAT INDEX




USA.gov is the U.S. government's official web portal to all federal, state and local government web resources and services.